LVMGN SAEZ-SAAR

Flight info

Callsign LVMGN
Flight time 0h 56m
Altitude 24000
Route ATOVO2A ATOVO W5 ESKON
Aircraft SF50/L-SDGRWY/L

Departure

Time 2026-05-08 17:00
Airport Ezeiza International Airport - Ministro Pistarini (SAEZ)

Arrival

Time 2026-05-08 17:56
Airport Rosario Islas Malvinas International Airport (SAAR)
Time Latitude Longitude Altitude Speed Heading
2026-05-08 16:40 -34.81545 -58.53951 67 ft 0 kts 317°
2026-05-08 16:51 -34.81541 -58.53945 67 ft 2 kts 152°
2026-05-08 16:51 -34.81556 -58.53934 67 ft 3 kts 142°
2026-05-08 16:51 -34.81593 -58.53893 67 ft 9 kts 137°
2026-05-08 16:52 -34.81651 -58.53831 67 ft 12 kts 139°
2026-05-08 16:52 -34.81713 -58.53752 67 ft 11 kts 142°
2026-05-08 16:52 -34.81770 -58.53708 67 ft 8 kts 154°
2026-05-08 16:52 -34.81824 -58.53674 67 ft 9 kts 155°
2026-05-08 16:53 -34.81950 -58.53604 67 ft 10 kts 156°
2026-05-08 16:53 -34.82016 -58.53569 67 ft 8 kts 140°
2026-05-08 16:53 -34.81973 -58.53589 67 ft 9 kts 330°
2026-05-08 16:54 -34.81906 -58.53621 67 ft 9 kts 40°
2026-05-08 16:54 -34.81879 -58.53566 67 ft 7 kts 130°
2026-05-08 16:54 -34.81918 -58.53510 67 ft 10 kts 120°
2026-05-08 16:54 -34.81943 -58.53416 67 ft 13 kts 104°
2026-05-08 16:55 -34.81970 -58.53289 67 ft 17 kts 103°
2026-05-08 16:55 -34.82003 -58.53125 67 ft 21 kts 105°
2026-05-08 16:55 -34.82029 -58.52969 67 ft 16 kts 108°
2026-05-08 16:55 -34.82059 -58.52839 67 ft 15 kts 107°
2026-05-08 16:56 -34.82087 -58.52705 67 ft 16 kts 103°
2026-05-08 16:56 -34.82116 -58.52556 67 ft 18 kts 102°
2026-05-08 16:56 -34.82148 -58.52394 67 ft 20 kts 104°
2026-05-08 16:56 -34.82182 -58.52227 67 ft 20 kts 107°
2026-05-08 16:57 -34.82215 -58.52054 67 ft 20 kts 103°
2026-05-08 16:57 -34.82247 -58.51895 67 ft 17 kts 106°
2026-05-08 16:57 -34.82284 -58.51789 67 ft 10 kts 153°
2026-05-08 16:57 -34.82360 -58.51792 67 ft 11 kts 189°
2026-05-08 16:58 -34.82449 -58.51819 67 ft 14 kts 205°
2026-05-08 16:58 -34.82512 -58.51926 67 ft 16 kts 270°
2026-05-08 16:58 -34.82505 -58.51991 67 ft 0 kts 279°
2026-05-08 16:59 -34.82456 -58.52325 67 ft 79 kts 277°
2026-05-08 16:59 -34.82332 -58.53130 351 ft 107 kts 278°
2026-05-08 17:00 -34.82185 -58.54091 749 ft 126 kts 279°
2026-05-08 17:00 -34.82051 -58.55186 1128 ft 141 kts 276°
2026-05-08 17:00 -34.81979 -58.56413 1562 ft 146 kts 271°
2026-05-08 17:00 -34.81938 -58.57671 1952 ft 154 kts 273°
2026-05-08 17:01 -34.81842 -58.59094 2149 ft 179 kts 264°
2026-05-08 17:01 -34.82240 -58.60590 2441 ft 196 kts 243°
2026-05-08 17:01 -34.83015 -58.62016 2730 ft 210 kts 235°
2026-05-08 17:01 -34.83942 -58.63442 3018 ft 220 kts 233°
2026-05-08 17:02 -34.84923 -58.64895 3299 ft 227 kts 232°
2026-05-08 17:02 -34.85939 -58.66392 3579 ft 232 kts 232°
2026-05-08 17:02 -34.86976 -58.67919 3856 ft 236 kts 232°
2026-05-08 17:02 -34.88030 -58.69458 4132 ft 240 kts 229°
2026-05-08 17:03 -34.89494 -58.70404 4391 ft 248 kts 193°
2026-05-08 17:03 -34.91224 -58.70397 4663 ft 255 kts 169°
2026-05-08 17:03 -34.92811 -58.69424 4946 ft 260 kts 146°
2026-05-08 17:03 -34.94186 -58.67960 5226 ft 262 kts 137°
2026-05-08 17:04 -34.95390 -58.66322 5500 ft 263 kts 131°
2026-05-08 17:04 -34.96468 -58.64496 5779 ft 263 kts 124°
2026-05-08 17:04 -34.97367 -58.62556 6053 ft 264 kts 118°
2026-05-08 17:04 -34.97686 -58.60390 6309 ft 267 kts 83°
2026-05-08 17:05 -34.96913 -58.58371 6577 ft 266 kts 47°
2026-05-08 17:05 -34.95335 -58.57282 6847 ft 261 kts 10°
2026-05-08 17:05 -34.93567 -58.57333 7129 ft 257 kts 351°
2026-05-08 17:05 -34.91795 -58.57590 7397 ft 258 kts 356°
2026-05-08 17:06 -34.90024 -58.57217 7670 ft 260 kts 16°
2026-05-08 17:06 -34.88343 -58.56452 7944 ft 259 kts 20°
2026-05-08 17:06 -34.86681 -58.55633 8219 ft 259 kts 20°
2026-05-08 17:06 -34.85010 -58.54812 8496 ft 258 kts 20°
2026-05-08 17:07 -34.83352 -58.53988 8771 ft 257 kts 21°
2026-05-08 17:07 -34.81610 -58.53608 9046 ft 254 kts
2026-05-08 17:07 -34.79868 -58.53638 9319 ft 253 kts 356°
2026-05-08 17:07 -34.78104 -58.53715 9597 ft 252 kts 356°
2026-05-08 17:08 -34.76355 -58.53791 9872 ft 252 kts 356°
2026-05-08 17:08 -34.74589 -58.53866 10151 ft 251 kts 356°
2026-05-08 17:08 -34.72859 -58.53939 10425 ft 251 kts 356°
2026-05-08 17:08 -34.71123 -58.54012 10699 ft 250 kts 356°
2026-05-08 17:09 -34.69385 -58.54085 10975 ft 250 kts 356°
2026-05-08 17:09 -34.67648 -58.54158 11251 ft 249 kts 357°
2026-05-08 17:09 -34.65921 -58.54232 11527 ft 249 kts 357°
2026-05-08 17:09 -34.64205 -58.54304 11800 ft 248 kts 357°
2026-05-08 17:10 -34.62479 -58.54376 12077 ft 248 kts 357°
2026-05-08 17:10 -34.60762 -58.54448 12352 ft 247 kts 357°
2026-05-08 17:10 -34.59055 -58.54520 12627 ft 246 kts 356°
2026-05-08 17:10 -34.57352 -58.54591 12901 ft 246 kts 356°
2026-05-08 17:11 -34.55647 -58.54663 13177 ft 245 kts 356°
2026-05-08 17:11 -34.53953 -58.54734 13452 ft 245 kts 356°
2026-05-08 17:11 -34.52231 -58.54807 13733 ft 250 kts 356°
2026-05-08 17:11 -34.50480 -58.54881 14013 ft 259 kts 355°
2026-05-08 17:12 -34.48649 -58.54958 14296 ft 266 kts 355°
2026-05-08 17:12 -34.46790 -58.55036 14576 ft 271 kts 355°
2026-05-08 17:12 -34.44910 -58.55115 14854 ft 275 kts 355°
2026-05-08 17:12 -34.42992 -58.55195 15133 ft 278 kts 355°
2026-05-08 17:13 -34.41056 -58.55276 15412 ft 281 kts 355°
2026-05-08 17:13 -34.39109 -58.55357 15689 ft 282 kts 355°
2026-05-08 17:13 -34.37132 -58.55440 15970 ft 284 kts 355°
2026-05-08 17:13 -34.35177 -58.55522 16246 ft 285 kts 354°
2026-05-08 17:14 -34.33215 -58.55605 16522 ft 285 kts 354°
2026-05-08 17:14 -34.31226 -58.55689 16801 ft 285 kts 354°
2026-05-08 17:14 -34.29236 -58.55772 17081 ft 286 kts 354°
2026-05-08 17:14 -34.27262 -58.55855 17358 ft 286 kts 354°
2026-05-08 17:15 -34.25280 -58.55938 17636 ft 286 kts 354°
2026-05-08 17:15 -34.23305 -58.56020 17914 ft 285 kts 353°
2026-05-08 17:15 -34.21324 -58.56103 18193 ft 285 kts 353°
2026-05-08 17:15 -34.19348 -58.56185 18471 ft 285 kts 353°
2026-05-08 17:16 -34.17399 -58.56266 18747 ft 284 kts 353°
2026-05-08 17:16 -34.15472 -58.56604 19013 ft 274 kts 332°
2026-05-08 17:16 -34.14075 -58.58038 19291 ft 262 kts 299°
2026-05-08 17:16 -34.13385 -58.60010 19578 ft 258 kts 288°
2026-05-08 17:17 -34.12903 -58.62093 19857 ft 256 kts 278°
2026-05-08 17:17 -34.12806 -58.64214 20136 ft 254 kts 269°
2026-05-08 17:17 -34.12945 -58.66357 20418 ft 253 kts 264°
2026-05-08 17:17 -34.13185 -58.68433 20694 ft 253 kts 262°
2026-05-08 17:18 -34.13476 -58.70531 20974 ft 251 kts 261°
2026-05-08 17:18 -34.13783 -58.72583 21249 ft 250 kts 261°
2026-05-08 17:18 -34.14101 -58.74651 21528 ft 249 kts 261°
2026-05-08 17:18 -34.14420 -58.76709 21807 ft 248 kts 261°
2026-05-08 17:19 -34.14738 -58.78754 22085 ft 247 kts 261°
2026-05-08 17:19 -34.15035 -58.80783 22356 ft 245 kts 266°
2026-05-08 17:19 -34.15018 -58.82827 22634 ft 243 kts 270°
2026-05-08 17:19 -34.15110 -58.84843 22908 ft 243 kts 266°
2026-05-08 17:20 -34.15313 -58.86859 23183 ft 242 kts 265°
2026-05-08 17:20 -34.15574 -58.88873 23459 ft 241 kts 264°
2026-05-08 17:20 -34.15857 -58.90855 23694 ft 242 kts 264°
2026-05-08 17:20 -34.16159 -58.92891 23733 ft 250 kts 264°
2026-05-08 17:21 -34.16475 -58.94978 23739 ft 258 kts 264°
2026-05-08 17:21 -34.16776 -58.97141 23732 ft 262 kts 271°
2026-05-08 17:21 -34.16368 -58.99249 23743 ft 261 kts 296°
2026-05-08 17:21 -34.15460 -59.01140 23744 ft 265 kts 304°
2026-05-08 17:22 -34.14366 -59.02969 23746 ft 269 kts 308°
2026-05-08 17:22 -34.13202 -59.04758 23747 ft 272 kts 309°
2026-05-08 17:22 -34.11998 -59.06540 23748 ft 275 kts 310°
2026-05-08 17:22 -34.10784 -59.08312 23747 ft 277 kts 310°
2026-05-08 17:23 -34.09536 -59.10120 23747 ft 279 kts 310°
2026-05-08 17:23 -34.08301 -59.11905 23747 ft 280 kts 310°
2026-05-08 17:23 -34.07045 -59.13718 23746 ft 282 kts 310°
2026-05-08 17:23 -34.05790 -59.15529 23746 ft 282 kts 310°
2026-05-08 17:24 -34.04530 -59.17347 23746 ft 283 kts 310°
2026-05-08 17:24 -34.03262 -59.19174 23746 ft 284 kts 310°
2026-05-08 17:24 -34.01996 -59.20999 23745 ft 284 kts 310°
2026-05-08 17:24 -34.00744 -59.22803 23745 ft 284 kts 310°
2026-05-08 17:25 -33.99464 -59.24645 23745 ft 285 kts 310°
2026-05-08 17:25 -33.98201 -59.26464 23745 ft 285 kts 310°
2026-05-08 17:25 -33.96939 -59.28278 23744 ft 285 kts 310°
2026-05-08 17:25 -33.95655 -59.30124 23744 ft 285 kts 310°
2026-05-08 17:26 -33.94393 -59.31937 23744 ft 285 kts 310°
2026-05-08 17:26 -33.93119 -59.33766 23744 ft 285 kts 310°
2026-05-08 17:26 -33.91847 -59.35592 23744 ft 285 kts 310°
2026-05-08 17:26 -33.90573 -59.37421 23743 ft 285 kts 310°
2026-05-08 17:27 -33.89307 -59.39234 23749 ft 285 kts 310°
2026-05-08 17:27 -33.88024 -59.41074 23750 ft 286 kts 310°
2026-05-08 17:27 -33.86752 -59.42896 23750 ft 286 kts 310°
2026-05-08 17:27 -33.85462 -59.44743 23750 ft 286 kts 310°
2026-05-08 17:28 -33.84192 -59.46560 23750 ft 286 kts 310°
2026-05-08 17:28 -33.82906 -59.48399 23749 ft 286 kts 310°
2026-05-08 17:28 -33.81641 -59.50208 23749 ft 286 kts 310°
2026-05-08 17:28 -33.80357 -59.52042 23749 ft 286 kts 310°
2026-05-08 17:29 -33.79073 -59.53876 23749 ft 286 kts 310°
2026-05-08 17:29 -33.77794 -59.55701 23749 ft 286 kts 310°
2026-05-08 17:29 -33.76508 -59.57535 23748 ft 286 kts 310°
2026-05-08 17:29 -33.75224 -59.59366 23728 ft 287 kts 310°
2026-05-08 17:30 -33.73951 -59.61180 23731 ft 287 kts 310°
2026-05-08 17:30 -33.72669 -59.63007 23739 ft 286 kts 310°
2026-05-08 17:30 -33.71376 -59.64848 23750 ft 286 kts 310°
2026-05-08 17:30 -33.70105 -59.66656 23766 ft 286 kts 311°
2026-05-08 17:31 -33.68824 -59.68479 23779 ft 286 kts 311°
2026-05-08 17:31 -33.67538 -59.70306 23793 ft 286 kts 311°
2026-05-08 17:31 -33.66264 -59.72116 23807 ft 286 kts 311°
2026-05-08 17:31 -33.64983 -59.73936 23823 ft 285 kts 311°
2026-05-08 17:32 -33.63707 -59.75747 23839 ft 285 kts 311°
2026-05-08 17:32 -33.62416 -59.77579 23855 ft 285 kts 311°
2026-05-08 17:32 -33.61145 -59.79380 23869 ft 285 kts 311°
2026-05-08 17:32 -33.59858 -59.81204 23881 ft 285 kts 311°
2026-05-08 17:33 -33.58588 -59.83003 23886 ft 285 kts 311°
2026-05-08 17:33 -33.57309 -59.84814 23886 ft 286 kts 311°
2026-05-08 17:33 -33.56028 -59.86627 23886 ft 286 kts 311°
2026-05-08 17:33 -33.54729 -59.88465 23886 ft 286 kts 311°
2026-05-08 17:34 -33.53459 -59.90259 23886 ft 286 kts 311°
2026-05-08 17:34 -33.52163 -59.92090 23885 ft 286 kts 311°
2026-05-08 17:34 -33.50877 -59.93907 23885 ft 286 kts 311°
2026-05-08 17:34 -33.49593 -59.95719 23885 ft 286 kts 311°
2026-05-08 17:35 -33.48304 -59.97539 23885 ft 286 kts 311°
2026-05-08 17:35 -33.47013 -59.99358 23885 ft 286 kts 311°
2026-05-08 17:35 -33.45737 -60.01157 23884 ft 286 kts 311°
2026-05-08 17:35 -33.44440 -60.02984 23884 ft 286 kts 311°
2026-05-08 17:36 -33.43163 -60.04781 23884 ft 286 kts 311°
2026-05-08 17:36 -33.41867 -60.06606 23884 ft 286 kts 311°
2026-05-08 17:36 -33.40577 -60.08420 23884 ft 286 kts 311°
2026-05-08 17:36 -33.39302 -60.10213 23880 ft 281 kts 311°
2026-05-08 17:37 -33.38032 -60.11998 23479 ft 285 kts 311°
2026-05-08 17:37 -33.36726 -60.13829 23021 ft 289 kts 311°
2026-05-08 17:37 -33.35204 -60.15364 22567 ft 291 kts 323°
2026-05-08 17:37 -33.33543 -60.16757 22114 ft 293 kts 324°
2026-05-08 17:38 -33.31854 -60.18142 21663 ft 295 kts 325°
2026-05-08 17:38 -33.30177 -60.19511 21240 ft 296 kts 325°
2026-05-08 17:38 -33.28479 -60.20894 20812 ft 296 kts 325°
2026-05-08 17:38 -33.26780 -60.22278 20384 ft 297 kts 326°
2026-05-08 17:39 -33.25070 -60.23669 20001 ft 296 kts 326°
2026-05-08 17:39 -33.23386 -60.25039 19640 ft 295 kts 326°
2026-05-08 17:39 -33.21693 -60.26414 19287 ft 294 kts 326°
2026-05-08 17:39 -33.20014 -60.27779 18944 ft 294 kts 326°
2026-05-08 17:40 -33.18318 -60.29156 18608 ft 293 kts 326°
2026-05-08 17:40 -33.16644 -60.30514 18287 ft 292 kts 326°
2026-05-08 17:40 -33.14960 -60.31877 17973 ft 292 kts 326°
2026-05-08 17:40 -33.13300 -60.33223 17670 ft 291 kts 326°
2026-05-08 17:41 -33.11640 -60.34568 17378 ft 290 kts 326°
2026-05-08 17:41 -33.09968 -60.35923 17124 ft 289 kts 326°
2026-05-08 17:41 -33.08319 -60.37259 16882 ft 287 kts 326°
2026-05-08 17:41 -33.06687 -60.38579 16643 ft 285 kts 326°
2026-05-08 17:42 -33.05034 -60.39917 16404 ft 284 kts 326°
2026-05-08 17:42 -33.03412 -60.41228 16176 ft 282 kts 327°
2026-05-08 17:42 -33.01800 -60.42532 15954 ft 281 kts 327°
2026-05-08 17:42 -33.00212 -60.43814 15700 ft 275 kts 327°
2026-05-08 17:43 -32.98655 -60.45073 15258 ft 268 kts 327°
2026-05-08 17:43 -32.97118 -60.46312 14766 ft 265 kts 327°
2026-05-08 17:43 -32.95611 -60.47529 14285 ft 262 kts 327°
2026-05-08 17:43 -32.94105 -60.48743 13801 ft 261 kts 327°
2026-05-08 17:44 -32.92619 -60.49941 13322 ft 260 kts 327°
2026-05-08 17:44 -32.91124 -60.51146 12841 ft 260 kts 327°
2026-05-08 17:44 -32.89630 -60.52349 12361 ft 260 kts 327°
2026-05-08 17:44 -32.88144 -60.53545 11891 ft 260 kts 327°
2026-05-08 17:45 -32.86647 -60.54750 11419 ft 260 kts 327°
2026-05-08 17:45 -32.85150 -60.55954 10945 ft 260 kts 327°
2026-05-08 17:45 -32.83667 -60.57148 10474 ft 257 kts 326°
2026-05-08 17:45 -32.82214 -60.58316 9999 ft 250 kts 326°
2026-05-08 17:46 -32.80800 -60.59450 9526 ft 245 kts 326°
2026-05-08 17:46 -32.79418 -60.60562 9051 ft 238 kts 326°
2026-05-08 17:46 -32.78055 -60.61655 8570 ft 233 kts 326°
2026-05-08 17:46 -32.76738 -60.62713 8097 ft 230 kts 325°
2026-05-08 17:47 -32.75425 -60.63767 7621 ft 227 kts 325°
2026-05-08 17:47 -32.74121 -60.64812 7142 ft 225 kts 325°
2026-05-08 17:47 -32.72834 -60.65845 6704 ft 222 kts 326°
2026-05-08 17:47 -32.71989 -60.66522 6439 ft 220 kts 326°
2026-05-08 17:48 -32.70316 -60.67860 5908 ft 217 kts 324°
2026-05-08 17:48 -32.69076 -60.68855 5510 ft 215 kts 324°
2026-05-08 17:48 -32.67843 -60.69844 5112 ft 214 kts 325°
2026-05-08 17:48 -32.66611 -60.70828 4711 ft 213 kts 323°
2026-05-08 17:49 -32.65774 -60.72183 4305 ft 210 kts 285°
2026-05-08 17:49 -32.65965 -60.73860 3902 ft 211 kts 243°
2026-05-08 17:49 -32.67093 -60.74934 3499 ft 218 kts 201°
2026-05-08 17:49 -32.68615 -60.74858 3101 ft 224 kts 167°
2026-05-08 17:50 -32.70061 -60.74343 2894 ft 212 kts 173°
2026-05-08 17:50 -32.71473 -60.74285 2788 ft 197 kts 189°
2026-05-08 17:50 -32.72719 -60.74479 2784 ft 163 kts 194°
2026-05-08 17:50 -32.73775 -60.74704 2600 ft 148 kts 196°
2026-05-08 17:51 -32.74774 -60.74929 2428 ft 145 kts 196°
2026-05-08 17:51 -32.75763 -60.75155 2251 ft 143 kts 196°
2026-05-08 17:51 -32.76738 -60.75375 2073 ft 142 kts 196°
2026-05-08 17:51 -32.77653 -60.75581 2007 ft 128 kts 197°
2026-05-08 17:52 -32.78484 -60.75767 1999 ft 113 kts 197°
2026-05-08 17:52 -32.79225 -60.75935 1999 ft 105 kts 198°
2026-05-08 17:52 -32.80728 -60.76283 1751 ft 114 kts 198°
2026-05-08 17:53 -32.81515 -60.76462 1607 ft 118 kts 198°
2026-05-08 17:53 -32.82323 -60.76644 1454 ft 120 kts 198°
2026-05-08 17:53 -32.83152 -60.76832 1293 ft 121 kts 197°
2026-05-08 17:53 -32.83978 -60.77019 1130 ft 121 kts 197°
2026-05-08 17:54 -32.84806 -60.77206 963 ft 121 kts 197°
2026-05-08 17:54 -32.85583 -60.77377 848 ft 101 kts 198°
2026-05-08 17:54 -32.86217 -60.77521 696 ft 85 kts 199°
2026-05-08 17:54 -32.86784 -60.77652 580 ft 82 kts 199°
2026-05-08 17:55 -32.87343 -60.77781 472 ft 82 kts 199°
2026-05-08 17:55 -32.87906 -60.77879 375 ft 83 kts 198°
2026-05-08 17:55 -32.88469 -60.77997 265 ft 78 kts 200°
2026-05-08 17:55 -32.88960 -60.78128 145 ft 67 kts 201°
2026-05-08 17:56 -32.89375 -60.78248 88 ft 56 kts 198°
2026-05-08 17:56 -32.89713 -60.78325 88 ft 43 kts 190°
2026-05-08 17:56 -32.89973 -60.78384 87 ft 34 kts 190°
2026-05-08 17:56 -32.90189 -60.78429 87 ft 29 kts 190°
2026-05-08 17:57 -32.90382 -60.78473 87 ft 26 kts 189°
2026-05-08 17:57 -32.90561 -60.78514 87 ft 26 kts 191°
2026-05-08 17:57 -32.90745 -60.78552 87 ft 27 kts 192°
2026-05-08 17:57 -32.90941 -60.78543 87 ft 29 kts 165°
2026-05-08 17:58 -32.91116 -60.78442 87 ft 26 kts 144°
2026-05-08 17:58 -32.91248 -60.78322 87 ft 21 kts 143°
2026-05-08 17:58 -32.91358 -60.78221 87 ft 18 kts 147°
2026-05-08 17:58 -32.91453 -60.78147 87 ft 14 kts 136°
2026-05-08 17:59 -32.91480 -60.78093 87 ft 5 kts 113°
2026-05-08 17:59 -32.91490 -60.78063 87 ft 2 kts 111°
2026-05-08 17:59 -32.91493 -60.78053 87 ft 0 kts 111°
2026-05-08 17:59 -32.91494 -60.78051 87 ft 0 kts 111°